Change the Weather History Date:

Sunday, June 23, 2013

  Actual Average (KISP) Record (KISP)
Temperature  
Mean Temperature 73 °F 71 °F  
Max Temperature 81 °F 79 °F 91 °F (1999)
Min Temperature 66 °F 63 °F 48 °F (1992)
Degree Days  
Heating Degree Days 0 0  
Month to date heating degree days 36  
Since 1 June heating degree days 36  
Since 1 July heating degree days 5426  
Cooling Degree Days 8 6  
Month to date cooling degree days 91  
Year to date cooling degree days 115  
Since 1 June cooling degree days 91  
Growing Degree Days 23 (Base 50)    
Moisture  
Dew Point 66 °F    
Average Humidity 79    
Maximum Humidity 93    
Minimum Humidity 62    
Precipitation  
Precipitation 0.00 in 0.13 in 0.14 in (2006)
Month to date precipitation 3.48  
Year to date precipitation 22.94  
Snow  
Snow 0.00 in 0.00 in - ()
Month to date snowfall 0.0  
Since 1 July snowfall 24.8  
Snow Depth -    
Sea Level Pressure  
Sea Level Pressure 30.15 in    
Wind  
Wind Speed 8 mph (SSW)    
Max Wind Speed 16 mph    
Max Gust Speed 24 mph    
Visibility 10 miles    
Events      
T = Trace of Precipitation, MM = Missing Value Source: NWS Daily Summary

Daily Weather History Graph

Daily Weather History Graph

Search for Another Location

Airport or City:

Trip Planner

Search our weather history database for the weather conditions in past years. The results will help you decide how hot, cold, wet, or windy it might be!

Date:

Astronomy

Jun. 23, 2013 Rise Set
Actual Time 5:20 AM EDT 8:26 PM EDT
Civil Twilight 4:47 AM EDT 9:00 PM EDT
Nautical Twilight 4:04 AM EDT 9:43 PM EDT
Astronomical Twilight 3:13 AM EDT 10:33 PM EDT
Moon 8:36 PM EDT (6/23) 5:35 AM EDT (6/23)
Length of Visible Light 16h 13m
Length of Day
15h 06m
Full, 100% of the Moon is Illuminated
Jun 23
Full
Jun 30
Last Quarter
Jul 8
New
Jul 15
First Quarter
Jul 22
Full

Hourly Weather History & Observations

Time (EDT) Temp. Heat Index Dew Point Humidity Pressure Visibility Wind Dir Wind Speed Gust Speed Precip Events Conditions
12:56 AM 66.9 °F - 64.0 °F 90% 30.20 in 10.0 mi SSW 4.6 mph - N/A   Clear
1:56 AM 66.9 °F - 61.0 °F 81% 30.19 in 10.0 mi SSW 5.8 mph - N/A   Clear
2:56 AM 66.0 °F - 61.0 °F 84% 30.18 in 10.0 mi SW 4.6 mph - N/A   Clear
3:56 AM 66.9 °F - 60.1 °F 79% 30.17 in 10.0 mi SW 5.8 mph - N/A   Clear
4:56 AM 66.9 °F - 59.0 °F 76% 30.18 in 10.0 mi SSW 5.8 mph - N/A   Clear
5:56 AM 66.9 °F - 60.1 °F 79% 30.18 in 10.0 mi SSW 3.5 mph - N/A   Clear
6:56 AM 70.0 °F - 62.1 °F 76% 30.19 in 10.0 mi SSW 4.6 mph - N/A   Clear
7:56 AM 73.0 °F - 64.0 °F 73% 30.20 in 10.0 mi SSW 9.2 mph - N/A   Clear
8:56 AM 75.9 °F - 64.0 °F 67% 30.20 in 10.0 mi SSW 6.9 mph - N/A   Clear
9:56 AM 77.0 °F - 64.0 °F 64% 30.19 in 10.0 mi SW 8.1 mph - N/A   Clear
10:56 AM 78.1 °F - 64.9 °F 64% 30.19 in 10.0 mi SSW 10.4 mph - N/A   Clear
11:56 AM 80.1 °F 82.1 °F 66.0 °F 62% 30.18 in 10.0 mi SSW 12.7 mph - N/A   Clear
12:56 PM 78.1 °F - 66.0 °F 66% 30.18 in 10.0 mi South 16.1 mph - N/A   Clear
1:56 PM 79.0 °F - 66.9 °F 66% 30.16 in 10.0 mi SSW 15.0 mph - N/A   Clear
2:56 PM 79.0 °F - 66.9 °F 66% 30.15 in 10.0 mi SSW 12.7 mph 24.2 mph N/A   Clear
3:56 PM 78.1 °F - 69.1 °F 74% 30.14 in 10.0 mi SSW 15.0 mph - N/A   Clear
4:56 PM 77.0 °F - 69.1 °F 76% 30.13 in 10.0 mi SSW 15.0 mph 23.0 mph N/A   Clear
5:56 PM 77.0 °F - 71.1 °F 82% 30.11 in 10.0 mi SSW 10.4 mph 23.0 mph N/A   Scattered Clouds
6:07 PM 77.0 °F - 69.8 °F 78% 30.11 in 10.0 mi SSW 12.7 mph 21.9 mph N/A   Mostly Cloudy
6:51 PM 75.2 °F - 69.8 °F 83% 30.11 in 10.0 mi South 11.5 mph - N/A   Scattered Clouds
6:56 PM 73.9 °F - 69.1 °F 85% 30.11 in 10.0 mi SSW 10.4 mph - N/A   Mostly Cloudy
7:19 PM 73.4 °F - 69.8 °F 88% 30.11 in 10.0 mi South 11.5 mph - N/A   Mostly Cloudy
7:56 PM 73.0 °F - 69.1 °F 87% 30.11 in 10.0 mi SSW 10.4 mph 19.6 mph N/A   Overcast
8:56 PM 72.0 °F - 69.1 °F 91% 30.10 in 10.0 mi South 8.1 mph - N/A   Overcast
9:24 PM 71.6 °F - 68.0 °F 88% 30.11 in 10.0 mi SSW 10.4 mph 19.6 mph N/A   Mostly Cloudy
9:56 PM 71.1 °F - 69.1 °F 93% 30.11 in 10.0 mi SSW 11.5 mph - N/A   Overcast
10:41 PM 71.6 °F - 68.0 °F 88% 30.10 in 10.0 mi South 11.5 mph - N/A   Overcast
10:56 PM 72.0 °F - 69.1 °F 91% 30.10 in 10.0 mi SSW 10.4 mph - N/A   Overcast
11:56 PM 72.0 °F - 69.1 °F 91% 30.09 in 10.0 mi SSW 6.9 mph - N/A   Overcast